Location: Newark
(45.8667°N, 9.7333°E)
Time: 15:41:41
(UTC+00:00)

Vanguard 3 - Pass Details

Date: 27 January 2020
Orbit: 508 x 3263 km, 33.3° (Epoch: 17 February)

Event Time Altitude Azimuth Distance (km) Brightness Sun altitude
Rises 20:02:00 0° 269° (W) 7,232 12.8 -38.7°
Reaches altitude 10° 20:07:18 10° 264° (W) 6,140 12.2 -39.6°
Maximum altitude 20:24:24 45° 201° (SSW) 3,239 10.0 -42.4°
Enters shadow 20:25:58 44° 187° (S) 3,170 9.8 -42.7°
Drops below altitude 10° 20:35:54 10° 134° (SE) 4,218 - -44.3°
Sets 20:38:49 0° 127° (SE) 4,882 - -44.8°
